Weather History for Tulsa Jones, OK

Change the Weather History Date:

Saturday, December 1, 2012

  Actual Average (KTUL) Record (KTUL)
Temperature  
Mean Temperature 66 °F 43 °F  
Max Temperature 78 °F 53 °F 77 °F (1950)
Min Temperature 55 °F 33 °F 13 °F (2006)
Degree Days  
Heating Degree Days 0 22  
Month to date heating degree days 22  
Since 1 July heating degree days 658  
Cooling Degree Days 2    
Growing Degree Days 16 (Base 50)    
Moisture  
Dew Point 56 °F    
Average Humidity 70    
Maximum Humidity 90    
Minimum Humidity 45    
Precipitation  
Precipitation 0.00 in 0.09 in 1.48 in (1909)
Month to date precipitation 0.09  
Year to date precipitation 38.57  
Sea Level Pressure  
Sea Level Pressure 29.91 in    
Wind  
Wind Speed 11 mph (South)    
Max Wind Speed 23 mph    
Max Gust Speed 36 mph    
Visibility 10 miles    
Events      
T = Trace of Precipitation, MM = Missing Value Source: NWS Daily Summary

Daily Weather History Graph

Daily Weather History Graph

Search for Another Location

Airport:

Trip Planner

Search our weather history database for the weather conditions in past years. The results will help you decide how hot, cold, wet, or windy it might be!

Date:

Astronomy

Dec. 01, 2012 Rise Set
Actual Time 7:16 AM CST 5:09 PM CST
Civil Twilight 6:48 AM CST 5:37 PM CST
Nautical Twilight 6:16 AM CST 6:09 PM CST
Astronomical Twilight 5:45 AM CST 6:40 PM CST
Moon 7:59 PM CST (12/1) 9:31 AM CST (12/1)
Length of Visible Light 10h 49m
Length of Day
9h 53m
Waning Gibbous, 91% of the Moon is Illuminated
Dec 1
Waning Gibbous
Dec 6
Last Quarter
Dec 13
New
Dec 19
First Quarter
Dec 28
Full

Hourly Weather History & Observations

Time (CST) Temp. Dew Point Humidity Pressure Visibility Wind Dir Wind Speed Gust Speed Precip Events Conditions
12:53 AM 59.0 °F 54.0 °F 83% 30.02 in 9.0 mi SSE 8.1 mph - N/A   Overcast
1:41 AM 59.0 °F 53.6 °F 82% 29.99 in 9.0 mi South 6.9 mph - N/A   Overcast
1:53 AM 59.0 °F 54.0 °F 83% 30.01 in 9.0 mi South 8.1 mph - N/A   Overcast
3:53 AM 60.1 °F 55.9 °F 86% 29.98 in 8.0 mi SSE 8.1 mph - N/A   Overcast
4:53 AM 64.0 °F 57.9 °F 80% 29.96 in 10.0 mi South 9.2 mph - N/A   Overcast
5:53 AM 64.9 °F 57.9 °F 78% 29.96 in 10.0 mi South 11.5 mph 24.2 mph N/A   Overcast
6:53 AM 64.9 °F 57.9 °F 78% 29.94 in 10.0 mi South 16.1 mph 23.0 mph N/A   Overcast
7:53 AM 66.0 °F 59.0 °F 78% 29.94 in 10.0 mi South 16.1 mph 24.2 mph N/A   Overcast
10:53 AM 72.0 °F 57.9 °F 61% 29.90 in 10.0 mi South 21.9 mph 35.7 mph N/A   Mostly Cloudy
11:50 AM 73.4 °F 57.2 °F 57% 29.86 in 10.0 mi South 23.0 mph 32.2 mph N/A   Mostly Cloudy
11:53 AM 73.0 °F 57.9 °F 59% 29.87 in 10.0 mi SSW 19.6 mph 31.1 mph N/A   Mostly Cloudy
1:53 PM 77.0 °F 57.0 °F 50% 29.83 in 10.0 mi South 20.7 mph 28.8 mph N/A   Clear
2:53 PM 78.1 °F 55.9 °F 46% 29.82 in 10.0 mi South 20.7 mph 31.1 mph N/A   Clear
3:53 PM 78.1 °F 55.0 °F 45% 29.82 in 10.0 mi SSW 17.3 mph 25.3 mph N/A   Clear
4:53 PM 75.9 °F 55.9 °F 50% 29.85 in 10.0 mi South 12.7 mph - N/A   Clear
5:53 PM 73.0 °F 57.0 °F 57% 29.87 in 10.0 mi South 8.1 mph - N/A   Clear
6:53 PM 72.0 °F 57.0 °F 59% 29.89 in 10.0 mi South 8.1 mph - N/A   Clear
7:53 PM 69.1 °F 57.0 °F 65% 29.91 in 10.0 mi South 5.8 mph - N/A   Clear
8:53 PM 62.1 °F 55.9 °F 80% 29.91 in 10.0 mi Calm Calm - N/A   Clear
9:53 PM 57.0 °F 52.0 °F 83% 29.92 in 10.0 mi Calm Calm - N/A   Clear
10:53 PM 55.9 °F 52.0 °F 87% 29.93 in 10.0 mi Calm Calm - N/A   Clear
11:53 PM 57.9 °F 55.0 °F 90% 29.94 in 10.0 mi Calm Calm - N/A   Clear